Weather in Arkharovo

Russia / Oryol Oblast     52°28′16″N   36°41′58″E
temp.,
°C
wind,
m/s
gust,
m/s
humid.,
%
clouds,
%
prec.,
mm/h
press.,
hPa
HPBL,
m
15 may, sat
sat1500:00+15s339348 0.6 100946
03:00+14s33930 1.1 100931
06:00+13s489328 0.0 1009169
09:00+17ssw6979100 0.0 1010459
12:00+20ssw67630 0.0 10111269
15:00+21ssw79571 0.1 10102070
18:00+18sw611755 0.9 1011939
21:00+14ssw38895 0.9 1012164
16 may, sun
sun1600:00+12ssw37910 0.0 1013120
03:00+11ssw33915 0.0 101347
06:00+13s368889 0.0 1014135
09:00+17ssw35755 0.0 1014449
12:00+21ssw35590 0.0 10141277
15:00+22sw3552100 0.0 10141881
18:00+22wsw1262100 0.0 1013762
21:00+16ne337593 0.0 101330
17 may, mon
mon1700:00+15ene468237 0.0 101392
03:00+14ene512805 0.0 1012216
06:00+15e5139050 0.0 1011268
09:00+19ese7117147 0.0 1010406
12:00+24ese7125528 0.0 1009932
15:00+25ese81656100 0.0 10071661
18:00+23se7146411 0.0 1006760
21:00+19se614765 0.0 1006355
18 may, tue
tue1800:00+17se5148368 0.0 1006303
03:00+15se489566 0.0 1006141
06:00+16sse51193100 0.0 1006331
09:00+18s7108191 0.0 1007865
12:00+19s5875100 0.1 10071230
15:00+18s4677100 0.5 1007578
18:00+19s477735 1.3 10071002
21:00+15sse411925 3.7 1007228
19 may, wed
wed1900:00+13sse369353 0.0 1006109
03:00+13sse4109476 0.3 1005247
06:00+13s4897100 1.1 1005448
09:00+13ssw5995100 1.2 1006524
12:00+13wsw699285 0.4 1008645
15:00+16wsw797881 1.8 10091160
18:00+16wsw5774100 0.1 1009890
21:00+12wsw348865 0.3 101165